Starlink 31633

operational
NORAD ID: 59331 Int'l Des: 2024-057 Owner: SPXS Country: US Constellation: starlink
LEOCIRCULAR

关于 Starlink 31633

正在加载描述...

实时位置

正在加载3D地球...

即将过境

高度历史

Altitude vs Time

uPlot chart will show altitude changes over time

两行轨道根数

1 59331U 24057M 25258.82500442 .00002776 00000-0 11031-3 0 9997
2 59331 42.9998 94.7936 0000901 256.2234 103.8517 15.27594253 83094
Epoch: Sep 15, 2025 • Age: 25 hours

当前状态

高度 495.2 km
速度 7.62 km/s
星下点 -41.92°S, 39.29°E
发射日期 Mar 25, 2024
运行时间 1.4 years
类型 internet

技术详情

分类 Payload
质量 730.00 kg
干质量 700.00 kg
总质量 730.00 kg
长度 0.30 m
直径 4.10 m
跨度 29.00 m
形状 Box + pan
制造商 SPXS
平台类型 Starlink V2M
阶段状态 In Orbit
所有者/国家 SPXS/US

大型星座

Loading constellations...